STARLINK-4538 (53430 NORAD) Tracking and Keplerian Element Data

This shows tracking and keplerian element data for the satellite.

Feedback or suggestion? Click here.




ElementValue
Catalog53430
NameSTARLINK-4538
Epoch Orbit799
Epoch Day270.25001157
Epoch Year2022
RAAN10.2174
Inclination53.218
Eccentricity0.0002425
Argument of Perigee16.8923
Mean Anonmoly164.8982
Mean Motion15.73148524
Decay Rate0.00038331
L11 53430U 22097AU 22270.25001157 .00038331 00000+0 27687-3 0 9999
L22 53430 53.2180 10.2174 0002425 16.8923 164.8982 15.73148524 7996

Live tracking and technical data element details for STARLINK-4538 (NORAD 53430). STARLINK-4538 can be tracked NOW for your location showing map with azimuth and elevation plus other details from your city location.

Track the satellite on the map from your city or location and see movement details for azimuth, elevation, latitude, longitude, range, height, and movement on the map or in text.







IsCatalogInMostPopularTable: catalog: 53430, numindb: 1
Update: records affected: 1



GetName: 53430 STARLINK-4538

Hit Count: updated at: Fri, 30 Sep 2022 04:25:21 GMT